This is the latest recevied weather packets stored in our database for station/object KJ4UBX-11. If no packets are shown the sender has not sent any weather packets the latest 10 day(s).
| Time | Temp. | Humidity | Pressure | Rain* | Wind** | Luminosity | Snow |
|---|---|---|---|---|---|---|---|
| 1778087519 | 17.22° C | 71% | 1006.1 hPa | - | - | - | - |
| 1778086937 | 17.22° C | 71% | 1006.3 hPa | - | - | - | - |
| 1778086354 | 17.22° C | 70% | 1006.4 hPa | - | - | - | - |
| 1778085772 | 18.33° C | 66% | 1006.6 hPa | - | - | - | - |
| 1778085191 | 18.33° C | 64% | 1006.7 hPa | - | - | - | - |
| 1778084608 | 19.44° C | 62% | 1006.9 hPa | - | - | - | - |
| 1778084026 | 20° C | 60% | 1007.1 hPa | - | - | - | - |
| 1778083442 | 20° C | 59% | 1007.2 hPa | - | - | - | - |
| 1778082859 | 20° C | 61% | 1007.4 hPa | - | - | - | - |
| 1778082275 | 19.44° C | 62% | 1007.5 hPa | - | - | - | - |
| 1778081691 | 19.44° C | 63% | 1007.5 hPa | - | - | - | - |
| 1778081109 | 18.89° C | 63% | 1007.7 hPa | - | - | - | - |
| 1778080529 | 20° C | 60% | 1007.5 hPa | - | - | - | - |
| 1778079948 | 20.56° C | 59% | 1007.5 hPa | - | - | - | - |
| 1778079364 | 21.11° C | 57% | 1007.4 hPa | - | - | - | - |
| 1778078781 | 20.56° C | 58% | 1007.2 hPa | - | - | - | - |
| 1778078200 | 22.22° C | 54% | 1007 hPa | - | - | - | - |
| 1778077617 | 22.78° C | 53% | 1007 hPa | - | - | - | - |
| 1778077033 | 21.67° C | 54% | 1007.3 hPa | - | - | - | - |
| 1778076448 | 22.22° C | 56% | 1007.6 hPa | - | - | - | - |
| 1778075863 | 21.11° C | 58% | 1007.8 hPa | - | - | - | - |
| 1778075277 | 20° C | 59% | 1007.6 hPa | - | - | - | - |
| 1778074694 | 19.44° C | 66% | 1007.7 hPa | - | - | - | - |
| 1778074112 | 19.44° C | 65% | 1007.5 hPa | - | - | - | - |
| 1778073528 | 19.44° C | 65% | 1007.4 hPa | - | - | - | - |
* Rain since midnight (hover to see other rain measurements)
** Current wind speed in m/s (hover to see current wind gust speed)